Location: Lhota
(50.0887°N, 14.0116°E)
Time: 00:21:35
(UTC+00:00)

CZ-4C R/B - Pass Details

Date: 19 May 2025
Orbit: 425 x 537 km, 98.0° (Epoch: 23 June)

Event Time Altitude Azimuth Distance (km) Brightness Sun altitude
Rises 21:14:25 0° 19° (NNE) 2,613 7.5 -16.1°
Reaches altitude 10° 21:16:37 10° 25° (NNE) 1,703 6.4 -16.3°
Maximum altitude 21:20:08 45° 99° (E) 668 3.5 -16.5°
Enters shadow 21:20:55 38° 137° (SE) 749 3.5 -16.6°
